Mackall AAF, NC

3:39 PM EST on December 12, 2017 (GMT -0500)
Mackall Army Air Field

Weather History for KHFF - July, 2013

Change the Weather History Date:

Tuesday, July 16, 2013

  Actual Average Record
Temperature  
Mean Temperature 82 °F -  
Max Temperature 93 °F 88 °F 95 °F (2002)
Min Temperature 70 °F 71 °F 64 °F (2008)
Cooling Degree Days 16    
Growing Degree Days 32 (Base 50)    
Moisture  
Dew Point 71 °F    
Average Humidity 73    
Maximum Humidity 96    
Minimum Humidity 39    
Precipitation  
Precipitation 0.00 in - - ()
Sea Level Pressure  
Sea Level Pressure 30.27 in    
Wind  
Wind Speed 3 mph (WNW)    
Max Wind Speed 8 mph    
Max Gust Speed -    
Visibility 11 miles    
Events      
Averages and records for this station are not official NWS values.
T = Trace of Precipitation, MM = Missing Value Source: NWS Daily Summary

Daily Weather History Graph

Daily Weather History Graph

Search for Another Location

Airport or City:

Trip Planner

Search our weather history database for the weather conditions in past years. The results will help you decide how hot, cold, wet, or windy it might be!

Date:

Astronomy

Jul. 16, 2013 Rise Set
Actual Time 6:16 AM EDT 8:31 PM EDT
Civil Twilight 5:47 AM EDT 9:00 PM EDT
Nautical Twilight 5:11 AM EDT 9:36 PM EDT
Astronomical Twilight 4:33 AM EDT 10:14 PM EDT
Moon 2:16 PM EDT (7/16) 12:37 AM EDT (7/16)
Length of Visible Light 15h 13m
Length of Day
14h 15m
First Quarter, 56% of the Moon is Illuminated
Jul 16
First Quarter
Jul 22
Full
Jul 29
Last Quarter
Aug 6
New
Aug 14
First Quarter

Hourly Weather History & Observations

Time (EDT) Temp. Heat Index Dew Point Humidity Pressure Visibility Wind Dir Wind Speed Gust Speed Precip Events Conditions
12:56 AM 73.9 °F - 72.0 °F 93% 30.30 in 10.0 mi South 2.3 mph - N/A   Clear
1:56 AM 73.0 °F - 71.4 °F 95% 30.29 in 10.0 mi SW 2.3 mph - N/A   Clear
2:56 AM 72.3 °F - 70.3 °F 93% 30.29 in 7.0 mi North 2.3 mph - N/A   Clear
3:56 AM 71.8 °F - 70.3 °F 95% 30.29 in 8.0 mi NNW 1.2 mph - N/A   Clear
4:56 AM 70.9 °F - 69.3 °F 95% 30.28 in 9.0 mi NNW 2.3 mph - N/A   Clear
5:56 AM 70.3 °F - 68.9 °F 95% 30.30 in 8.0 mi North 3.5 mph - N/A   Clear
6:56 AM 71.1 °F - 70.0 °F 96% 30.30 in 7.0 mi Calm Calm - N/A   Clear
7:56 AM 75.6 °F - 73.0 °F 92% 30.31 in 12.0 mi NW 2.3 mph - N/A   Clear
8:56 AM 81.1 °F 86.4 °F 73.8 °F 78% 30.31 in 12.0 mi NNW 6.9 mph - N/A   Clear
9:56 AM 84.6 °F 91.0 °F 73.0 °F 68% 30.31 in 12.0 mi WNW 6.9 mph - N/A   Clear
10:56 AM 85.5 °F 91.5 °F 72.0 °F 64% 30.31 in 12.0 mi WNW 3.5 mph - N/A   Partly Cloudy
11:56 AM 87.6 °F 92.3 °F 69.8 °F 55% 30.30 in 12.0 mi Variable 4.6 mph - N/A   Clear
12:56 PM 89.4 °F 94.4 °F 69.4 °F 52% 30.28 in 12.0 mi Variable 2.3 mph - N/A   Partly Cloudy
1:56 PM 90.7 °F 94.5 °F 68.0 °F 47% 30.26 in 12.0 mi Variable 2.3 mph - N/A   Clear
2:56 PM 92.7 °F 97.7 °F 68.9 °F 46% 30.24 in 12.0 mi Variable 6.9 mph - N/A   Partly Cloudy
3:56 PM 93.4 °F 95.6 °F 65.3 °F 39% 30.23 in 12.0 mi Variable 1.2 mph - N/A   Mostly Cloudy
4:56 PM 92.1 °F 95.7 °F 67.5 °F 44% 30.22 in 12.0 mi SW 4.6 mph - N/A   Partly Cloudy
5:56 PM 90.3 °F 95.7 °F 70.2 °F 51% 30.21 in 12.0 mi WNW 3.5 mph - N/A   Partly Cloudy
6:56 PM 91.6 °F 97.2 °F 69.8 °F 49% 30.21 in 12.0 mi NW 8.1 mph - N/A   Scattered Clouds
7:56 PM 87.6 °F 94.3 °F 72.0 °F 60% 30.21 in 12.0 mi NW 4.6 mph - N/A   Partly Cloudy
8:56 PM 83.1 °F 90.4 °F 74.7 °F 76% 30.23 in 12.0 mi NW 2.3 mph - N/A   Clear
9:56 PM 80.4 °F 85.8 °F 75.2 °F 84% 30.24 in 12.0 mi WSW 2.3 mph - N/A   Scattered Clouds
10:56 PM 78.8 °F - 74.5 °F 87% 30.24 in 12.0 mi Variable 1.2 mph - N/A   Clear
11:56 PM 77.4 °F - 74.3 °F 90% 30.24 in 12.0 mi SSW 2.3 mph - N/A   Clear